GFSSGP_prec_cthk_006.txt.gz
RH
31 30 31 32 33 28 27 23 20 22 24 24 26 33 40 42 49 50 46 46 44 43 50 49 48 44 40 35 32 32 31 27 28 31 31 32 35 31 28 23 17 16 15 15 16 17 19 23 27
29 31 32 32 32 30 27 24 21 22 24 24 29 34 40 47 46 51 48 46 46 48 53 53 48 45 43 37 34 34 34 30 26 29 30 33 37 36 31 18 15 14 14 15 17 17 16 15 15
29 31 33 33 30 28 28 27 24 23 26 27 30 36 44 47 51 52 54 51 47 50 54 54 54 51 47 44 37 37 35 32 30 30 32 37 34 33 31 27 21 18 16 16 15 15 15 16 16
31 32 31 31 28 26 28 28 27 26 25 29 30 35 41 47 54 55 61 56 58 62 54 59 63 58 51 43 43 40 38 34 32 35 34 37 37 42 39 34 30 28 24 23 23 23 24 24 24
30 31 32 31 26 26 27 29 30 29 27 28 32 34 40 45 45 54 56 55 54 59 61 64 64 60 49 45 44 44 40 38 34 38 37 39 38 39 48 41 36 34 32 31 30 29 33 29 28
34 32 32 30 27 26 27 29 30 30 29 28 29 34 39 43 49 47 49 49 56 54 56 59 57 55 50 48 45 46 40 39 37 39 39 40 41 45 45 43 34 30 29 28 29 32 34 35 34
32 33 30 30 28 25 26 28 28 29 30 30 29 32 37 42 45 50 52 50 50 51 53 57 55 55 58 54 49 48 42 40 39 40 42 41 42 46 49 49 43 35 32 32 35 37 40 41 41
36 35 32 31 27 26 26 26 27 28 30 31 31 30 32 38 41 44 49 51 52 52 56 55 56 56 58 58 55 53 44 44 41 40 40 43 42 44 45 43 41 39 34 36 38 40 44 45 42
35 35 31 28 29 27 27 26 27 26 28 30 32 33 32 31 34 40 44 48 52 51 53 54 59 60 61 58 58 58 46 46 46 44 40 38 41 40 41 39 38 36 36 38 41 41 44 42 39
35 36 28 28 30 30 28 27 28 28 28 28 31 33 34 33 32 36 38 43 47 47 48 48 56 59 63 61 60 62 53 51 49 48 45 41 39 40 38 37 37 38 41 42 42 43 43 42 39
36 36 30 33 32 31 30 28 29 28 28 28 31 33 33 35 38 37 37 41 44 45 50 47 52 60 63 63 59 59 59 58 55 48 47 44 42 41 39 40 42 46 45 44 47 45 43 43 37
39 35 35 35 36 38 36 35 31 29 25 31 32 32 32 34 37 38 39 39 42 44 46 47 50 54 59 65 63 61 62 58 59 55 50 48 48 45 46 49 47 48 49 50 48 45 42 38 30
45 37 40 39 38 35 36 33 35 34 30 32 32 34 34 34 36 39 40 39 39 41 44 45 46 49 54 59 63 61 60 60 62 60 52 56 56 56 53 53 51 51 52 52 48 43 34 31 29
44 43 42 40 39 38 37 33 39 29 30 31 30 30 33 34 35 37 41 41 40 40 41 44 44 47 50 54 59 63 64 63 63 62 53 59 62 59 57 59 56 53 53 53 41 34 32 31 31
47 46 40 39 39 39 39 35 32 26 29 28 28 28 28 30 34 34 37 43 42 42 43 42 42 44 47 51 54 58 59 60 65 64 63 57 65 67 65 64 60 54 53 42 34 32 32 31 27
51 50 47 42 42 40 40 34 32 32 31 30 30 27 27 27 29 32 34 39 42 43 42 42 41 42 45 49 53 53 55 61 65 67 64 63 66 71 69 66 60 56 43 35 33 34 30 26 21
49 42 46 42 40 42 41 38 38 34 35 33 30 31 30 29 27 29 32 33 37 40 42 42 42 40 42 49 52 55 59 61 64 64 62 63 68 70 69 65 60 44 35 36 37 33 28 21 19
37 44 39 35 36 37 35 35 35 38 35 34 33 32 31 31 28 29 30 31 32 35 38 42 43 42 41 48 54 58 61 61 64 62 63 67 68 68 68 65 48 38 39 41 37 33 28 21 18
38 40 40 37 37 37 31 28 30 30 30 32 33 33 32 31 30 31 30 31 31 32 35 37 42 44 43 45 47 53 56 56 53 57 60 65 65 68 67 54 43 42 45 41 40 37 31 25 20
43 44 41 39 40 39 35 26 27 27 25 26 27 28 31 32 31 29 30 31 31 30 34 35 38 43 44 46 51 54 58 59 58 58 59 60 64 67 63 50 46 47 45 48 48 44 38 30 21
46 47 45 44 42 42 42 29 23 22 21 22 24 25 24 28 31 30 29 30 32 31 32 34 36 41 45 49 55 58 58 62 64 65 63 64 66 64 56 49 51 49 53 53 51 47 42 33 25
47 44 47 51 52 52 45 39 24 23 23 22 24 24 24 26 27 29 31 29 31 31 31 33 36 38 43 48 56 57 55 59 66 69 68 67 62 60 50 51 54 55 55 56 55 51 45 36 27
52 53 54 54 55 55 45 66 26 25 25 25 24 25 25 25 27 29 30 30 31 32 32 32 36 39 42 49 56 60 65 65 66 69 70 64 59 54 49 52 55 56 56 57 56 55 50 43 32
56 57 57 57 60 67 36 46 31 22 25 24 25 26 26 28 28 29 35 33 32 33 34 35 38 42 43 46 55 63 64 63 60 65 67 64 57 48 50 53 56 57 58 59 59 58 55 46 35
57 61 63 71 74 52 36 49 35 25 28 30 32 30 30 30 30 31 34 34 33 33 34 37 41 42 44 48 55 62 67 66 69 67 61 61 56 52 54 56 58 59 60 61 62 59 55 47 39
57 59 59 57 52 51 52 52 27 32 33 34 40 36 29 30 29 29 35 36 35 36 37 41 45 47 47 53 56 61 66 73 71 66 62 59 53 53 55 57 59 61 63 63 62 59 56 47 39
67 76 64 78 68 89 62 46 37 35 43 44 45 42 42 36 34 34 35 35 37 41 42 47 51 52 52 54 57 65 70 81 70 65 62 57 55 57 58 60 62 64 65 66 64 61 56 46 41
70 73 84 93 88 80 63 57 38 43 48 49 43 44 46 41 37 35 37 38 40 46 49 54 56 57 58 57 62 64 78 75 68 64 61 58 58 58 60 62 64 67 69 68 65 61 54 48 43
78 84 91 90 87 81 71 49 48 50 48 56 53 49 44 45 41 37 38 42 44 52 54 56 58 59 61 62 64 74 75 70 66 64 60 60 61 63 65 67 68 71 71 70 66 61 56 51 44
73 81 86 96 93 94 81 51 50 46 47 50 49 53 51 52 45 41 42 47 48 55 57 59 63 67 68 71 74 73 82 71 67 63 62 62 66 67 69 70 73 75 74 71 67 64 56 44 34

GFSSGP_prec_cthk_009.txt.gz
RH
29 32 30 30 32 30 27 27 22 23 21 24 25 26 33 36 48 54 55 49 46 46 48 43 44 42 37 36 33 29 28 28 31 29 28 34 37 33 29 24 16 14 13 13 14 17 22 25 25
29 31 32 33 33 31 29 27 25 20 25 22 21 26 30 37 39 49 51 48 49 50 50 50 47 45 43 41 35 31 30 28 32 30 25 29 33 32 28 18 15 13 12 13 15 15 15 16 17
27 30 33 36 31 28 31 34 27 25 22 22 24 27 35 42 41 47 47 47 50 54 55 51 50 52 51 45 39 33 33 31 30 33 32 31 35 33 28 25 21 17 16 15 15 15 16 15 16
30 31 31 33 29 26 28 34 28 26 24 24 24 27 35 39 45 48 47 50 57 58 64 57 56 58 58 50 42 35 34 35 36 35 35 34 30 30 33 30 29 26 21 20 20 22 25 24 25
29 31 34 30 25 23 28 28 27 26 27 26 27 29 35 39 42 47 50 54 62 66 71 63 58 56 59 57 46 40 34 35 39 39 39 41 39 38 43 34 33 33 30 29 30 33 34 33 34
33 29 32 26 27 25 27 30 27 26 27 28 26 29 33 36 41 46 50 54 62 63 64 61 57 52 55 59 48 42 36 35 40 42 41 40 42 44 45 41 31 31 31 29 30 32 34 35 35
35 33 29 28 30 26 26 27 27 26 28 28 28 29 36 37 40 43 48 52 52 57 60 63 57 54 54 57 55 46 40 36 39 42 41 42 45 46 47 47 40 34 30 30 35 38 41 43 42
36 33 32 29 25 24 28 28 26 26 27 31 29 29 33 42 41 44 48 50 49 52 57 62 62 58 55 57 60 51 45 44 38 41 43 43 45 47 47 45 43 41 33 33 37 39 39 40 38
37 43 34 31 27 26 28 28 27 25 25 28 29 28 34 34 37 44 47 49 52 52 58 60 61 62 57 57 56 55 49 52 41 38 43 45 46 47 46 40 39 37 35 38 39 40 41 39 37
38 33 33 27 27 30 30 31 29 28 26 24 29 30 31 32 33 38 46 50 52 53 53 55 58 59 60 58 56 57 53 57 50 44 39 45 50 48 47 41 36 35 38 40 41 43 43 41 40
38 34 30 31 32 34 34 32 28 30 29 30 28 30 34 31 32 34 37 44 47 50 51 50 55 56 56 59 57 60 58 56 56 56 51 46 42 47 46 44 43 44 41 44 46 46 43 42 36
35 33 31 34 37 35 34 31 31 29 28 29 31 33 36 32 32 33 35 41 44 46 48 47 50 56 58 59 59 59 57 59 59 60 56 49 46 45 51 54 52 50 48 47 47 47 45 36 31
41 39 33 35 34 36 38 35 34 37 33 31 31 32 32 32 32 35 35 38 44 46 47 48 47 50 56 60 61 59 61 62 62 64 59 54 51 48 54 54 54 52 52 50 49 45 37 33 30
43 41 40 39 38 41 40 32 36 32 26 29 31 31 31 32 33 34 35 35 39 45 47 49 46 49 49 52 57 59 61 63 63 64 63 57 59 58 53 58 58 55 55 54 47 37 33 32 29
45 43 39 34 36 40 38 35 31 27 29 28 29 28 25 27 32 35 36 36 37 42 48 49 51 48 46 50 53 58 62 65 64 68 64 63 62 60 56 59 63 60 60 54 42 34 34 30 27
47 46 43 38 38 37 39 35 30 30 31 31 28 27 27 25 26 30 35 37 36 38 43 51 51 52 49 45 53 59 64 62 62 66 65 65 63 62 62 63 65 63 59 49 38 37 33 29 24
49 46 45 44 40 41 40 36 32 33 30 30 30 31 30 29 27 27 29 34 37 37 40 42 47 49 50 46 50 57 63 63 66 65 63 62 64 65 65 65 64 62 52 45 41 35 32 28 23
48 48 42 37 34 37 36 32 29 30 30 33 32 30 29 30 30 27 27 31 35 37 38 40 40 44 50 50 51 55 64 65 65 63 67 65 66 66 68 67 62 51 50 48 40 36 37 34 28
42 39 35 33 33 31 29 27 24 23 24 25 26 26 28 29 29 31 29 29 33 35 33 36 36 39 43 50 51 53 57 58 62 63 66 64 65 65 63 62 56 47 51 49 44 42 41 38 32
42 40 37 33 32 32 31 24 24 21 18 19 20 21 22 23 26 30 30 30 31 32 35 34 35 36 39 41 45 53 56 60 62 62 63 65 66 64 60 56 48 45 52 52 50 47 45 42 36
40 40 38 39 37 35 34 26 22 21 20 20 20 20 20 21 22 24 29 30 31 31 32 37 38 38 38 35 39 49 55 58 60 63 67 68 71 69 64 55 47 48 53 55 54 54 52 48 44
41 39 41 41 46 45 39 34 22 18 19 18 18 18 18 20 22 23 24 28 31 32 33 34 36 40 37 33 37 44 45 54 58 62 67 71 73 74 70 61 47 50 54 56 57 58 57 54 49
44 45 45 46 52 51 41 53 25 22 19 17 20 22 20 21 22 23 24 25 28 33 34 33 38 39 41 37 39 46 52 55 57 61 68 73 72 73 71 60 47 50 54 57 59 58 56 56 51
48 51 53 52 60 60 37 44 24 22 18 19 20 22 23 24 22 23 25 26 28 31 35 34 39 39 40 40 45 48 53 51 59 66 69 73 71 68 67 57 52 53 54 56 58 59 58 58 54
56 60 59 67 72 52 33 43 29 20 23 23 23 24 31 31 28 26 27 28 31 31 34 36 40 42 41 42 46 51 53 53 60 66 71 66 70 68 66 52 55 58 58 59 60 60 60 59 55
54 55 52 50 46 41 39 47 32 30 28 30 28 27 26 34 32 36 33 26 32 35 35 39 41 44 45 47 52 58 52 55 62 70 74 75 69 67 62 55 58 58 59 61 62 63 64 62 55
58 63 56 68 61 69 45 41 39 35 38 30 31 33 32 38 47 48 41 32 30 36 38 40 42 45 47 52 57 56 55 59 68 69 72 72 68 67 60 58 60 60 62 64 65 66 67 65 56
58 61 77 85 80 67 48 51 46 49 51 42 38 43 42 46 56 53 50 38 34 38 43 47 48 51 54 56 58 59 63 70 70 71 71 69 71 67 58 60 62 63 67 70 70 71 71 65 54
68 73 83 79 84 85 74 46 53 57 56 55 53 48 54 58 57 64 57 47 41 44 48 51 53 55 58 58 63 68 72 74 73 77 70 71 70 63 61 64 66 69 71 74 74 75 71 60 55
64 73 77 92 81 87 80 50 52 55 59 58 51 46 48 54 56 59 60 55 52 51 54 58 59 59 60 66 69 75 79 75 77 76 71 71 67 63 65 66 69 75 76 75 78 76 67 61 58

GFSSGP_prec_cthk_012.txt.gz
RH
27 29 29 28 34 32 31 29 27 25 22 23 26 28 32 36 49 60 57 53 50 42 40 39 38 36 35 35 32 28 26 30 30 26 31 35 36 34 29 22 12 10 11 12 13 16 23 24 23
27 28 29 29 35 35 28 32 32 25 25 23 21 24 27 36 43 49 53 55 54 47 43 41 38 38 40 40 35 30 26 31 29 28 29 32 33 30 22 18 14 13 12 12 12 13 13 14 15
26 28 29 32 32 29 27 37 35 29 23 22 21 22 29 40 41 44 46 48 51 49 46 43 45 44 43 42 39 34 28 29 32 30 30 30 30 25 23 24 21 16 16 15 15 15 15 15 15
26 28 27 29 27 26 23 34 37 31 26 23 24 25 31 36 39 38 42 44 48 49 51 51 52 51 49 44 42 37 29 28 33 34 32 33 29 27 25 27 28 25 22 19 19 21 21 22 25
27 31 33 30 24 22 26 29 30 28 26 26 26 24 35 35 34 39 42 48 52 56 56 59 57 58 57 47 43 39 34 31 34 35 35 34 38 39 35 27 28 30 29 30 32 34 33 32 32
31 27 33 31 26 24 23 26 30 27 25 26 26 24 37 36 34 41 46 47 55 57 61 64 59 61 59 49 47 43 37 32 35 37 38 38 42 44 44 38 28 25 26 29 32 33 36 36 36
31 33 32 29 29 24 25 28 32 30 27 26 27 28 34 40 36 38 47 50 54 56 57 61 58 56 53 50 48 46 40 36 37 37 39 42 44 45 45 46 41 35 29 29 32 34 36 37 36
28 34 35 33 31 24 25 29 33 30 26 27 28 27 33 52 40 38 45 49 51 54 52 52 52 51 53 51 49 48 45 41 42 39 38 43 47 49 48 46 43 42 35 33 35 36 36 36 34
31 39 36 31 31 27 25 30 34 32 29 26 30 27 32 38 42 43 45 50 52 54 52 52 51 50 52 51 51 50 49 45 43 47 42 40 44 47 48 46 42 38 34 36 38 38 39 38 36
36 39 35 29 29 29 30 33 32 32 30 25 27 26 30 31 35 39 40 44 51 52 55 54 52 52 53 53 51 52 51 48 45 47 47 44 45 44 45 46 43 40 38 38 38 39 40 40 38
35 35 30 23 29 29 32 34 32 33 34 30 27 26 29 29 30 33 37 40 47 52 54 55 55 52 53 52 50 50 53 51 51 50 47 51 53 45 42 43 46 45 45 45 43 41 40 40 35
36 35 33 26 29 35 33 33 34 32 31 30 31 31 30 35 30 29 31 35 40 46 50 53 56 57 53 52 53 51 53 53 53 54 53 53 50 48 44 46 47 54 52 49 49 47 44 36 32
38 35 33 30 28 31 33 35 33 31 33 27 26 29 29 33 35 32 31 31 36 41 42 43 50 53 52 48 53 55 54 55 55 55 57 54 54 50 51 50 50 49 50 51 49 47 39 33 32
44 43 40 36 33 33 32 31 33 30 23 27 30 27 27 28 31 31 32 33 33 38 40 42 43 46 50 53 53 55 58 60 60 61 59 55 55 54 54 52 52 51 52 54 51 44 39 34 32
48 47 42 37 32 33 32 33 33 28 26 27 25 25 25 24 26 28 30 33 34 33 36 41 42 44 47 51 52 52 57 60 62 65 65 58 61 62 58 54 57 58 54 55 49 45 42 38 30
47 48 47 32 31 32 36 36 29 31 29 27 26 27 25 24 23 23 26 31 35 36 36 38 41 42 44 46 52 52 55 60 61 63 65 63 65 64 60 58 61 61 59 52 47 43 43 39 31
51 51 48 44 38 37 37 38 33 34 30 31 31 30 28 25 24 24 24 27 30 36 38 38 40 41 40 47 50 53 57 59 63 64 67 66 65 63 58 60 63 64 60 48 46 41 43 42 35
51 55 50 46 43 37 37 36 33 31 31 30 30 28 28 29 28 26 25 23 26 31 36 38 40 42 41 43 49 52 59 59 60 62 64 62 67 63 62 62 62 62 51 46 44 41 45 44 37
54 53 50 46 39 35 32 30 28 25 24 22 23 25 25 25 26 27 29 27 25 26 33 37 37 38 39 39 42 46 51 54 60 58 58 62 65 63 64 62 63 56 45 40 40 42 45 47 42
53 53 49 42 36 34 31 28 25 21 18 18 19 19 19 21 22 23 26 31 30 28 30 35 37 36 37 40 40 44 47 51 54 55 60 64 63 63 62 66 64 54 47 40 40 44 48 51 48
49 49 44 41 38 34 31 28 24 19 19 18 18 18 18 18 18 20 21 23 27 30 31 34 35 37 36 41 46 45 47 48 49 55 60 65 66 66 68 69 64 59 50 47 46 48 51 53 53
45 41 42 40 42 45 36 46 23 17 16 18 18 16 16 17 17 17 18 21 25 26 31 35 37 37 39 39 40 39 40 42 44 49 55 63 68 69 71 71 65 65 54 51 49 50 52 54 54
43 44 42 43 46 48 39 49 23 18 19 18 19 19 20 20 20 20 20 20 23 26 30 32 38 41 39 39 40 43 43 45 46 52 57 62 67 70 72 70 70 67 51 54 54 54 54 55 54
44 46 45 47 50 60 42 39 20 20 21 23 22 21 22 23 23 24 22 22 22 23 27 32 36 41 42 46 41 40 44 44 48 52 58 64 66 69 74 72 70 68 54 55 55 58 60 60 57
49 53 66 69 70 57 34 40 24 24 25 27 27 25 24 26 29 29 28 26 26 24 25 29 37 40 42 45 44 43 43 45 49 54 61 64 67 69 72 72 73 67 55 58 59 61 62 62 60
54 56 61 60 60 52 43 46 30 27 27 25 29 29 31 29 31 37 33 30 29 28 28 29 34 42 43 46 47 48 44 47 52 59 64 68 72 72 68 76 72 61 58 61 61 62 63 64 64
58 62 48 61 54 64 47 34 30 34 28 25 26 31 36 36 35 36 32 32 32 33 33 34 36 40 44 46 50 54 49 49 57 64 67 73 74 72 78 72 70 59 60 61 61 64 67 69 69
54 50 69 74 79 65 45 44 47 40 38 35 34 40 43 44 41 40 37 34 34 35 35 41 43 45 46 47 51 55 51 55 65 68 72 77 81 75 70 71 66 59 60 62 66 70 73 75 71
58 64 69 73 78 83 68 54 45 48 40 38 39 40 51 52 50 44 39 36 36 44 42 40 48 53 52 52 54 56 59 70 72 74 78 81 75 76 70 72 64 61 64 68 72 75 76 73 70
60 68 70 84 78 82 79 59 48 49 53 50 49 50 51 56 52 49 50 50 52 58 54 54 62 65 56 56 56 64 72 76 74 74 80 79 80 72 73 71 65 67 72 73 77 79 74 75 70

GFSSGP_prec_cthk_015.txt.gz
RH
33 31 30 29 31 33 31 29 28 25 25 25 25 27 30 34 39 52 47 50 50 44 44 38 33 31 30 33 30 27 27 27 25 29 34 35 33 32 25 15 11 10 10 12 13 20 22 22 21
31 29 28 30 35 37 32 32 34 29 27 24 23 25 28 41 41 42 46 49 51 47 47 41 38 34 36 35 34 31 30 28 28 30 32 34 31 23 19 18 15 12 12 12 12 12 13 14 14
29 29 29 32 34 33 30 32 31 33 28 25 21 20 25 41 38 41 42 44 46 44 44 41 40 40 41 39 34 33 32 30 28 30 31 32 29 20 20 20 20 17 15 15 14 14 14 15 15
28 30 28 31 29 26 24 33 36 35 28 28 24 24 30 38 35 38 41 41 43 42 41 41 43 47 48 44 38 32 31 31 29 30 32 33 29 25 22 22 22 23 22 19 19 18 20 22 25
31 32 33 30 25 21 23 32 32 30 29 28 26 28 30 36 34 34 36 39 40 44 43 44 47 53 52 51 43 33 32 33 32 32 33 33 34 35 29 24 21 23 27 29 30 30 32 32 31
32 31 36 33 26 22 20 24 31 29 29 28 25 25 30 36 33 33 38 40 44 46 50 50 51 57 54 51 45 38 31 36 36 34 34 38 41 41 37 30 27 24 23 26 30 33 35 34 33
32 32 31 28 25 23 21 23 30 29 28 27 26 26 36 37 37 35 37 42 47 49 53 53 54 54 57 53 45 38 35 36 40 39 38 39 44 44 42 39 32 30 30 29 30 31 31 33 33
31 36 33 30 26 24 21 25 30 30 30 26 28 27 39 40 40 37 37 42 47 50 53 53 53 49 50 51 50 43 41 39 40 41 44 42 39 45 46 44 41 38 32 32 34 34 35 36 35
30 41 39 31 27 23 21 28 32 33 31 28 28 27 33 40 42 43 42 40 43 47 49 52 50 49 48 49 51 47 44 42 42 43 45 49 48 43 46 47 45 42 37 38 38 36 37 38 38
33 38 37 28 26 25 26 29 33 33 31 28 29 29 31 32 36 37 41 42 43 42 45 49 52 52 50 50 50 49 45 42 43 44 46 50 51 49 49 43 42 42 42 43 44 42 41 39 37
33 36 32 29 28 31 32 30 32 34 32 27 27 30 29 30 31 32 36 37 37 45 44 48 52 54 53 52 51 51 49 44 43 44 47 50 51 48 49 47 41 38 42 47 47 46 46 43 36
34 32 32 28 28 33 33 30 31 32 32 30 26 28 30 31 30 30 33 35 38 38 45 42 45 49 52 53 50 50 48 47 46 45 46 49 51 52 52 50 47 45 46 44 46 49 49 41 36
37 35 35 32 30 32 32 29 29 30 32 28 25 26 28 31 32 31 32 32 35 38 38 43 44 45 45 48 51 48 47 48 47 46 50 49 50 49 52 53 52 50 49 47 49 49 45 38 35
38 37 38 35 33 31 34 31 30 27 25 27 27 23 26 28 32 32 31 31 31 34 37 39 42 42 39 40 45 45 45 49 50 52 55 54 49 49 51 53 53 51 49 50 52 47 42 39 35
44 43 39 35 30 31 30 29 30 25 22 22 21 22 21 26 30 29 30 31 30 32 35 36 39 41 41 39 45 46 52 51 54 54 55 55 51 52 51 54 56 53 53 53 53 47 41 37 34
45 44 48 33 32 31 34 34 27 25 28 27 25 24 21 21 23 26 28 28 30 30 33 34 34 37 39 40 46 47 51 51 55 58 58 56 56 58 60 61 60 57 55 57 53 45 41 39 35
50 52 48 43 35 36 38 37 30 30 29 29 28 26 24 22 23 22 22 23 25 27 30 34 34 33 35 42 42 48 52 53 57 58 57 55 60 61 64 63 61 60 60 58 48 43 38 36 34
52 54 47 45 41 43 41 40 32 30 30 27 27 27 28 26 24 23 23 22 21 26 30 34 36 36 35 37 44 47 54 57 61 61 59 56 61 61 63 64 64 62 60 56 47 42 39 36 32
56 53 49 44 41 37 35 33 30 26 25 24 23 23 22 22 23 26 27 27 28 26 30 34 36 36 39 40 47 44 47 54 58 58 57 57 63 62 65 64 64 63 61 53 48 46 43 38 35
59 56 53 47 43 41 37 31 26 23 20 19 18 18 18 19 18 20 25 27 29 31 30 32 36 38 37 38 36 44 46 51 56 56 54 56 59 61 64 64 65 63 64 55 51 50 48 46 43
61 58 55 49 41 37 35 28 22 19 19 19 18 17 17 17 17 17 18 19 24 26 28 31 33 36 38 40 44 47 52 53 60 60 58 55 54 58 63 66 67 67 64 60 54 52 51 51 49
61 52 48 46 44 45 37 46 27 19 19 17 16 17 17 16 15 15 15 16 18 21 24 28 33 37 38 40 43 40 42 46 48 51 52 57 56 61 64 66 68 67 63 62 59 55 51 51 52
55 48 44 43 45 44 40 45 31 20 19 18 19 17 16 16 18 18 18 17 16 17 21 25 30 36 38 40 42 41 44 46 49 52 55 59 61 63 66 68 66 67 67 65 62 54 54 55 56
50 46 43 43 47 57 41 39 30 22 20 19 21 21 19 18 20 22 20 19 19 20 21 24 28 32 38 41 45 43 40 42 52 55 56 55 61 63 69 70 72 68 70 69 65 57 56 58 60
46 47 60 61 62 55 37 44 29 21 23 24 25 24 23 23 22 22 21 19 19 19 23 26 28 30 33 35 42 44 43 46 52 57 57 55 59 66 72 75 75 73 71 67 66 58 58 60 62
50 48 60 60 66 56 41 43 30 25 27 30 30 29 27 26 25 26 28 26 24 22 23 27 31 32 32 40 43 47 47 57 60 58 58 56 61 69 76 78 78 73 70 72 67 61 62 62 63
55 59 52 59 54 62 46 35 28 30 34 35 36 34 32 30 28 30 32 32 31 27 27 31 33 35 33 41 55 51 49 57 57 58 59 64 66 72 79 81 78 72 77 75 66 64 64 64 67
53 50 61 64 70 69 51 45 42 39 40 41 40 39 40 42 44 44 39 36 34 31 35 35 38 35 36 39 57 60 63 62 57 61 64 68 71 76 81 82 83 84 77 71 65 66 66 69 74
56 59 60 63 72 78 77 56 45 46 46 48 48 49 53 50 53 47 43 40 34 31 35 28 37 39 43 46 55 64 72 66 60 65 67 71 78 80 87 82 85 78 72 73 67 69 71 75 77
53 59 68 76 72 78 81 57 45 48 50 56 59 63 69 67 62 51 47 45 40 43 38 32 36 44 50 56 63 68 74 61 64 67 69 77 82 86 86 88 82 75 76 70 71 72 74 78 79

GFSSGP_prec_cthk_018.txt.gz
RH
36 34 32 30 29 31 31 27 30 28 25 25 27 29 32 37 40 48 44 46 49 47 44 41 36 31 28 31 30 28 26 24 23 27 28 28 27 27 23 15 11 10 10 10 19 20 20 21 21
37 35 33 32 36 37 32 28 28 27 25 25 24 26 30 37 37 40 46 47 48 45 44 42 40 37 34 34 33 30 29 26 32 31 33 31 28 18 16 17 15 12 11 12 15 17 17 15 13
37 34 33 35 36 33 29 32 30 28 26 25 24 22 29 32 35 38 42 44 47 44 43 41 41 38 41 39 35 33 28 28 30 32 32 30 25 18 17 18 19 18 15 13 13 13 13 15 16
35 35 33 36 32 24 25 31 30 29 28 25 25 25 28 30 31 35 38 40 44 43 41 39 40 40 44 43 39 38 33 28 28 31 32 29 24 24 22 20 20 23 24 24 21 19 20 21 22
35 35 35 34 28 23 25 30 32 29 24 26 26 26 26 30 31 32 34 39 42 42 41 39 42 43 44 46 43 39 35 34 32 33 32 33 28 27 26 24 23 21 24 30 29 31 31 32 32
38 36 40 34 27 21 20 29 32 29 27 25 25 26 28 30 32 31 31 36 42 43 41 42 44 45 47 49 47 40 36 35 34 37 39 35 39 35 30 28 27 28 28 28 30 32 32 32 30
39 35 36 30 27 24 18 23 32 29 27 26 23 25 30 31 33 31 32 33 39 44 46 44 46 48 49 50 48 44 40 34 36 38 39 42 40 41 41 36 34 32 31 33 33 32 32 32 30
35 37 34 29 27 24 18 22 27 28 25 25 24 26 31 28 35 36 35 34 39 46 51 56 57 57 53 48 44 41 40 38 38 40 43 46 47 45 43 42 41 39 37 38 37 35 34 33 34
37 42 40 30 27 22 17 23 28 30 29 26 26 25 24 28 34 39 39 37 36 43 50 55 57 56 52 49 46 45 43 40 41 42 45 46 49 52 48 45 44 43 40 42 42 42 41 40 38
38 42 36 27 25 24 20 24 30 31 29 28 27 26 29 33 32 33 36 38 39 41 44 52 55 54 51 52 50 48 43 41 41 42 43 47 48 52 52 50 47 42 39 42 44 47 47 44 42
35 37 29 26 24 26 25 26 30 34 32 28 28 28 29 31 30 27 29 32 34 38 45 46 48 53 54 54 53 52 47 43 42 41 43 46 47 50 51 49 48 45 42 41 42 44 47 48 43
33 32 29 26 23 24 28 29 29 31 31 28 27 28 30 34 34 30 28 30 32 34 36 40 47 51 53 56 54 56 52 47 44 40 41 45 46 47 49 48 49 46 44 44 44 45 46 43 40
35 33 31 27 26 28 29 32 30 29 30 30 27 29 30 29 27 29 32 34 37 35 35 39 40 43 43 49 55 55 53 53 50 42 39 41 44 46 48 50 49 48 48 47 46 47 48 43 38
38 33 32 30 30 30 29 29 31 27 28 28 28 28 30 28 29 29 31 32 35 38 37 38 41 44 43 40 42 48 51 50 48 43 40 42 44 48 51 50 51 50 50 51 51 49 47 43 39
42 41 38 34 30 32 31 27 29 26 25 26 29 27 26 27 27 28 28 29 29 30 32 38 43 45 39 36 38 39 42 46 47 47 48 49 49 49 49 50 53 55 58 57 54 51 46 42 39
44 43 46 35 33 31 33 31 23 21 23 23 22 22 23 22 23 26 27 28 28 29 30 32 39 44 46 38 39 40 47 49 47 48 51 51 54 51 49 51 56 61 61 61 58 54 48 42 37
51 53 48 39 33 32 37 36 25 25 26 26 25 24 22 20 18 18 23 25 29 29 31 33 37 45 44 39 45 44 43 44 48 50 49 53 56 56 55 56 62 63 62 64 62 53 48 44 39
49 52 46 45 40 40 39 39 31 29 29 28 26 24 23 22 20 19 19 22 24 27 31 35 36 35 46 54 49 47 49 48 49 48 50 56 59 61 61 62 63 63 63 64 62 52 48 46 42
55 56 52 45 41 39 38 35 31 27 27 26 25 24 23 23 23 25 24 24 23 23 24 29 33 33 38 50 53 49 53 50 51 46 52 58 60 62 60 63 66 66 66 67 61 54 52 50 46
63 62 56 50 47 43 39 34 30 28 25 23 21 19 19 20 21 22 24 26 27 25 24 23 24 30 32 35 44 54 45 46 51 52 53 56 61 61 59 60 63 62 63 64 60 58 55 53 50
63 59 57 55 51 45 41 31 26 21 18 18 17 16 18 17 16 16 19 20 22 24 27 28 27 31 34 36 41 54 61 63 55 57 58 61 63 63 59 60 63 64 66 66 63 60 57 54 54
65 58 55 54 51 52 42 47 29 20 18 17 16 17 17 16 16 15 15 17 17 20 24 24 27 28 33 36 39 45 50 53 51 56 57 64 66 66 63 62 65 67 67 63 64 64 61 57 56
62 57 53 50 51 48 43 48 29 22 20 17 17 17 17 16 16 16 16 16 16 16 17 21 25 26 29 31 36 46 53 60 55 52 55 60 66 69 67 67 71 71 70 63 65 65 64 59 56
59 58 55 51 50 56 39 42 33 22 20 18 18 19 18 19 18 18 19 19 19 19 19 19 21 26 27 31 34 39 51 55 58 56 55 57 62 66 68 69 75 76 71 66 70 67 68 65 59
57 58 57 54 61 50 40 46 35 24 22 22 24 23 23 23 23 22 22 21 21 21 21 20 21 23 29 30 35 41 43 51 51 54 53 58 61 66 69 69 75 78 78 72 73 72 72 68 60
52 48 52 48 62 56 43 45 31 24 27 28 28 28 28 29 28 26 25 24 25 26 25 24 24 24 26 29 32 42 45 48 52 57 56 56 61 67 71 73 78 81 81 80 76 75 71 78 63
52 58 52 59 57 62 46 36 28 32 33 35 36 36 36 35 34 32 30 30 30 31 31 31 30 29 27 26 31 37 41 48 49 53 61 64 69 73 76 76 81 84 84 80 79 69 72 80 65
54 53 61 62 62 63 51 49 46 42 40 40 40 42 43 44 45 45 43 41 39 37 36 36 35 34 31 29 30 35 37 47 53 66 66 69 74 74 73 79 82 85 85 82 78 77 83 76 66
59 61 55 58 65 73 73 55 45 44 44 46 49 50 52 52 52 52 52 55 50 47 42 35 31 28 26 27 33 31 38 44 63 77 74 71 72 73 75 80 81 83 84 89 87 87 79 69 68
53 57 60 69 67 80 81 61 48 48 51 55 58 63 67 67 61 58 64 64 63 56 49 43 37 34 31 28 34 32 40 55 61 78 80 79 72 75 76 79 84 85 91 92 86 81 69 73 72